Regional Weather Roundup
Issued by NWS State College, PA

Home | Current Version | Previous Version | Text Only | Print | Product List | Glossary On
Versions: 1 2 3 4 5 6 7 8 9 10 11 12 13 14 15 16 17 18 19 20 21 22 23 24 25 26 27 28 29 30 31 32 33 34 35 36 37 38 39 40 41 42 43 44 45 46 47 48 49 50
000
ASUS41 KCTP 051203
RWRCTP

REGIONAL WEATHER ROUNDUP
NATIONAL WEATHER SERVICE STATE COLLEGE PA
700 AM EST THU MAR 05 2015

Note: "fair" indicates few or no clouds below 12,000 feet with no
significant weather and/or obstructions to visibility.

* = STATION THAT DOES NOT REPORT PRECIPITATION /E.G. RAIN...SNOW...ETC/
    THUNDER OR FOG.

PAZ002>004-007>009-013>016-020>023-029>032-051300-
WESTERN PENNSYLVANIA

CITY           SKY/WX    TMP DP  RH WIND       PRES   REMARKS
ERIE           CLOUDY    10   0  63 N12       30.30R WCI  -5
MEADVILLE      CLOUDY    10   0  63 N9        30.20R WCI  -3
FRANKLIN*      CLOUDY    10   0  61 NW8       30.19R WCI  -1
NEW CASTLE     FAIR      13   3  64 N9        30.24R WCI   1
BEAVER COUNTY  CLOUDY    14   7  73 N8G16     30.21  WCI   3
BUTLER*        CLOUDY    14   9  79 N9        30.20R WCI   2
PITTSBURGH INT LGT SNOW  16  12  84 NW12      30.19R VSB 3/4 WCI   3
PITTSBURGH     LGT SNOW  16  11  80 N9        30.17R VSB 1   WCI   4
INDIANA*       FOG       18  16  93 NW6       30.17S VSB 1   WCI   9
LATROBE        LGT SNOW  18  18 100 NW12      30.18R VSB 3/4 WCI   5
WASHINGTON CO* CLOUDY    16  10  79 N6        30.20R WCI   7
$$

PAZ004>006-010>012-017>019-024>028-033>037-041-042-045-046-049>053-051300-
CENTRAL PENNSYLVANIA

CITY           SKY/WX    TMP DP  RH WIND       PRES   REMARKS
BRADFORD       CLOUDY     9  -5  53 NW13      30.06F WCI  -7
DUBOIS         LGT SNOW  13   8  81 N9        30.08R WCI   1
CLEARFIELD     LGT SNOW  19  13  77 NW10      30.09R WCI   7
JOHNSTOWN      LGT SNOW  17  13  84 NW12      30.03R FOG     WCI   4
ALTOONA        LGT SNOW  23  17  78 N9        30.07R WCI  13
STATE COLLEGE  LGT SNOW  25  18  74 NW10      30.07S FOG     WCI  15
WILLIAMSPORT   MIX PCPN  25  14  63 N14G23    30.11R WCI  13
SELINSGROVE    LGT SNOW  30  21  69 N12       30.09R
FT INDIANTOWN  LGT SNOW  31  27  88 VRB1      30.06R FOG
CAPITAL CITY   LGT SNOW  30  28  92 W8        30.07S VSB 3/4
HARRISBURG     LGT SNOW  31  29  92 NW7       30.06R VSB 3/4
YORK           LGT SNOW  31  29  92 NW6       30.06R FOG
$$

PAZ038>040-043-044-047-048-054-055-060>062-067>071-051300-
EASTERN PENNSYLVANIA

CITY           SKY/WX    TMP DP  RH WIND       PRES   REMARKS
SCRANTON       LGT SNOW  23  14  68 N17       30.06R WCI   9
MOUNT POCONO   LGT SNOW  22  16  78 N16G23    29.94R WCI   8
ALLENTOWN      LGT SNOW  30  27  86 N8        30.05R VSB 3/4
QUAKERTOWN*    CLOUDY    32  28  86 N5        30.05R
READING        LGT SNOW  32  29  88 W5        30.05R FOG
LANCASTER      LGT SNOW  31  30  96 W7        30.05R FOG
COATESVILLE    HVY SNOW  32  32 100 N9        30.04R VSB 1/4
POTTSTOWN      LGT SNOW  32  32 100 N6        30.06R FOG
BLUE BELL      CLOUDY    34  34 100 N5        30.05R VSB 1
DOYLESTOWN     LGT SNOW  30  30 100 NW8       30.04R FOG
WILLOW GROVE   NOT AVBL
NORTH PHILA    LGT SNOW  34  50 100 N7        30.07R VSB 1
PHILADELPHIA   LGT SNOW  33  31  92 N5        30.07R VSB 1
$$


USA.gov is the U.S. government's official web portal to all federal, state and local government web resources and services.